GW5152 Weather Reports


time (UTC)temp
C
wind
direction
speed
KPH
gust
KPH
rain 1hr
cm
rain 24hr
cm
rain mn
cm
humidity
%
barometer
mb
20260507002952 11 0.0 0.0 0.00 0.00 0.00 78 1010.6
20260507001951 11 0.0 0.0 0.00 0.00 0.00 78 1010.5
20260507000950 11 0.0 0.0 0.00 0.00 0.00 77 1010.5
20260506235950 11 0.0 0.0 0.00 0.00 0.00 77 1010.5
20260506234950 11 0.0 0.0 0.00 0.00 0.00 77 1010.5
20260506233950 11 0.0 0.0 0.00 0.00 0.00 76 1010.5
20260506232949 11 0.0 0.0 0.00 0.00 0.00 76 1010.5
20260506232007 12 0.0 0.0 0.00 0.00 0.00 76 1010.5
20260506230949 12 0.0 0.0 0.00 0.00 0.00 76 1010.4
20260506225948 12 0.0 0.0 0.00 0.00 0.00 75 1010.4
20260506224948 12 0.0 0.0 0.00 0.00 0.00 75 1010.4
20260506224006 12 0.0 0.0 0.00 0.00 0.00 75 1010.4
20260506222947 12 0.0 0.0 0.00 0.00 0.00 76 1010.4
20260506221947 12 0.0 0.0 0.00 0.00 0.00 76 1010.3
20260506220947 12 0.0 0.0 0.00 0.00 0.00 76 1010.2
20260506215947 12 0.0 0.0 0.00 0.00 0.00 75 1010.1
20260506214946 12 0.0 0.0 0.00 0.00 0.00 75 1010.0
20260506213945 12 0.0 0.0 0.00 0.00 0.00 75 1009.8
20260506212945 12 0.0 0.0 0.00 0.00 0.00 75 1009.7
20260506212003 12 0.0 0.0 0.00 0.00 0.00 74 1009.6
20260506210944 12 0.0 0.0 0.00 0.00 0.00 73 1009.5
20260506205944 12 0.0 0.0 0.00 0.00 0.00 73 1009.4
20260506204947 12 0.0 0.0 0.00 0.00 0.00 74 1009.4
20260506203943 12 0.0 0.0 0.00 0.00 0.00 75 1009.5
20260506202943 12 0.0 0.0 0.00 0.00 0.00 75 1009.4
20260506201943 12 0.0 0.0 0.00 0.00 0.00 74 1009.3
20260506200942 12 0.0 0.0 0.00 0.00 0.00 74 1009.3
20260506195942 12 0.0 0.0 0.00 0.00 0.00 74 1009.2
20260506194942 12 0.0 0.0 0.00 0.00 0.00 74 1009.1
20260506193957 12 0.0 0.0 0.00 0.00 0.00 73 1008.9
20260506192941 12 0.0 0.0 0.00 0.00 0.00 74 1008.8
20260506191941 13 0.0 0.0 0.00 0.00 0.00 75 1008.6
20260506185914 13 0.0 0.0 0.00 0.00 0.00 74 1008.3
20260506184913 13 0.0 0.0 0.00 0.00 0.00 74 1008.0
20260506183913 12 0.0 0.0 0.00 0.00 0.00 74 1008.0
20260506182913 13 0.0 0.0 0.00 0.00 0.00 74 1007.8
20260506181913 13 0.0 0.0 0.00 0.00 0.00 75 1007.7
20260506180911 13 0.0 0.0 0.00 0.00 0.00 76 1007.6
20260506174845 13 0.0 0.0 0.00 0.00 0.00 77 1007.5
20260506173844 13 0.0 0.0 0.00 0.00 0.00 77 1007.4
20260506172844 13 0.0 0.0 0.00 0.00 0.00 77 1007.3
20260506171843 13 0.0 0.0 0.00 0.00 0.00 76 1007.3
20260506170843 13 0.0 0.0 0.00 0.00 0.00 77 1007.3
20260506165843 13 0.0 0.0 0.00 0.00 0.00 77 1007.3
20260506164843 13 0.0 0.0 0.00 0.00 0.00 77 1007.2
20260506163843 13 0.0 0.0 0.00 0.00 0.00 76 1007.2
20260506162842 13 0.0 0.0 0.00 0.00 0.00 76 1007.2
20260506161842 13 0.0 0.0 0.00 0.00 0.00 76 1007.1
20260506160841 13 0.0 0.0 0.00 0.00 0.00 77 1007.1
20260506155857 13 0.0 0.0 0.00 0.00 0.00 76 1007.1
20260506154840 13 0.0 0.0 0.00 0.00 0.00 75 1007.1
20260506153840 14 0.0 0.0 0.00 0.00 0.00 74 1007.0
20260506152840 14 0.0 0.0 0.00 0.00 0.00 74 1006.9
20260506151840 14 0.0 0.0 0.00 0.00 0.00 74 1006.8
20260506150839 14 0.0 0.0 0.00 0.00 0.00 74 1006.7
20260506145838 14 0.0 0.0 0.00 0.00 0.00 74 1006.6
20260506144838 14 0.0 0.0 0.00 0.00 0.00 74 1006.5
20260506143838 14 0.0 0.0 0.00 0.00 0.00 74 1006.4
20260506142838 14 0.0 0.0 0.00 0.00 0.00 75 1006.3
20260506141837 14 0.0 0.0 0.00 0.00 0.00 74 1006.3
20260506140852 15 0.0 0.0 0.00 0.00 0.00 74 1006.3
20260506135843 15 0.0 0.0 0.00 0.00 0.00 75 1006.2
20260506134836 15 0.0 0.0 0.00 0.00 0.00 75 1006.2
20260506133836 15 0.0 0.0 0.00 0.00 0.00 75 1006.2
20260506132836 15 0.0 0.0 0.00 0.00 0.00 74 1006.1
20260506131853 15 0.0 0.0 0.00 0.00 0.00 74 1006.1
20260506130854 15 0.0 0.0 0.00 0.00 0.00 73 1006.0
20260506125835 15 0.0 0.0 0.00 0.00 0.00 75 1005.9
20260506124834 15 0.0 0.0 0.00 0.00 0.00 74 1005.8
20260506123852 15 0.0 0.0 0.00 0.00 0.00 75 1005.6
20260506122833 15 0.0 0.0 0.00 0.00 0.00 75 1005.5
20260506120806 15 0.0 0.0 0.00 0.00 0.00 76 1005.5
20260506115806 15 0.0 0.0 0.00 0.00 0.00 76 1005.4
20260506114806 15 0.0 0.0 0.00 0.00 0.00 76 1005.3
20260506113823 15 0.0 0.0 0.00 0.00 0.00 75 1005.3
20260506112805 15 0.0 0.0 0.00 0.00 0.00 75 1005.2
20260506111804 15 0.0 0.0 0.00 0.00 0.00 75 1005.2
20260506110804 16 0.0 0.0 0.00 0.00 0.00 76 1005.2
20260506105803 16 0.0 0.0 0.00 0.00 0.00 74 1005.2
20260506104803 16 0.0 0.0 0.00 0.00 0.00 77 1005.2
20260506103803 15 0.0 0.0 0.00 0.00 0.00 77 1005.2
20260506102803 15 0.0 0.0 0.00 0.00 0.00 78 1005.2
20260506101802 15 0.0 0.0 0.00 0.00 0.00 79 1005.1
20260506100802 15 0.0 0.0 0.00 0.00 0.00 79 1005.1
20260506095802 15 0.0 0.0 0.00 0.00 0.00 79 1005.0
20260506094801 15 0.0 0.0 0.00 0.00 0.00 80 1005.0
20260506093801 15 0.0 0.0 0.00 0.00 0.00 81 1005.0
20260506092801 15 0.0 0.0 0.00 0.00 0.00 81 1005.0
20260506091800 14 0.0 0.0 0.00 0.00 0.00 80 1004.9
20260506090800 14 0.0 0.0 0.00 0.00 0.00 80 1004.8
20260506085800 14 0.0 0.0 0.00 0.00 0.00 79 1004.8
20260506084800 15 0.0 0.0 0.00 0.00 0.00 80 1004.7
20260506083759 15 0.0 0.0 0.00 0.00 0.00 80 1004.7
20260506082759 15 0.0 0.0 0.00 0.00 0.00 80 1004.6
20260506081758 15 0.0 0.0 0.00 0.00 0.00 80 1004.5
20260506080758 15 0.0 0.0 0.00 0.00 0.00 80 1004.5
20260506072815 14 0.0 0.0 0.00 0.00 0.00 82 1004.6
20260506071811 13 0.0 0.0 0.00 0.00 0.00 82 1004.6
20260506070756 13 0.0 0.0 0.00 0.00 0.00 83 1004.5
20260506061754 13 0.0 0.0 0.00 0.00 0.00 83 1004.3
20260506060754 13 0.0 0.0 0.00 0.00 0.00 82 1004.2
20260506050752 13 0.0 0.0 0.00 0.00 0.00 83 1004.2
20260506044809 13 0.0 0.0 0.00 0.00 0.00 85 1004.2
20260506043751 13 0.0 0.0 0.00 0.00 0.00 85 1004.3
20260506042750 13 0.0 0.0 0.00 0.00 0.00 85 1004.3
20260506041806 13 0.0 0.0 0.00 0.00 0.00 85 1004.4
20260506040750 13 0.0 0.0 0.00 0.00 0.00 84 1004.5
20260506035750 13 0.0 0.0 0.00 0.00 0.00 84 1004.5
20260506034749 13 0.0 0.0 0.00 0.00 0.00 85 1004.6
20260506033749 13 0.0 0.0 0.00 0.00 0.00 85 1004.7
20260506032806 13 0.0 0.0 0.00 0.00 0.00 85 1004.7
20260506031748 13 0.0 0.0 0.00 0.00 0.00 85 1004.7
20260506030747 13 0.0 0.0 0.00 0.00 0.00 84 1004.8
20260506025747 13 0.0 0.0 0.00 0.00 0.00 85 1004.7
20260506024747 13 0.0 0.0 0.00 0.00 0.00 85 1004.8
20260506023746 13 0.0 0.0 0.00 0.00 0.00 85 1004.8
20260506022746 13 0.0 0.0 0.00 0.00 0.00 85 1004.7
20260506021747 13 0.0 0.0 0.00 0.00 0.00 85 1004.7
20260506020746 13 0.0 0.0 0.00 0.00 0.00 85 1004.8
20260506015801 13 0.0 0.0 0.00 0.00 0.00 85 1004.8
20260506014746 13 0.0 0.0 0.00 0.00 0.00 85 1004.9
20260506013744 13 0.0 0.0 0.00 0.00 0.00 85 1004.9
20260506012745 13 0.0 0.0 0.00 0.00 0.00 85 1004.9
20260506011744 13 0.0 0.0 0.00 0.00 0.00 86 1005.0
20260506010744 14 0.0 0.0 0.00 0.00 0.00 86 1005.0
20260506005743 13 0.0 0.0 0.00 0.00 0.00 86 1005.0
20260506004743 14 0.0 0.0 0.00 0.00 0.00 86 1005.2
20260506003743 14 0.0 0.0 0.00 0.00 0.00 85 1005.2